This is the latest recevied weather packets stored in our database for station/object BARLOW-WX. If no packets are shown the sender has not sent any weather packets the latest 10 day(s).
| Time | Temp. | Humidity | Pressure | Rain* | Wind** | Luminosity | Snow |
|---|---|---|---|---|---|---|---|
| 1777635977 | 3.89° C | 90% | 986.3 hPa | 0 mm | - | - | - |
| 1777635093 | 3.33° C | 90% | 986.3 hPa | 0 mm | - | - | - |
| 1777634177 | 3.33° C | 90% | 986.3 hPa | 0 mm | - | - | - |
| 1777633306 | 2.78° C | 90% | 986.3 hPa | 0 mm | - | - | - |
| 1777632377 | 2.78° C | 92% | 986 hPa | 0 mm | - | - | - |
| 1777631495 | 2.78° C | 90% | 986.6 hPa | 0 mm | - | - | - |
| 1777630576 | 3.89° C | 90% | 986.6 hPa | 0 mm | - | - | - |
| 1777629713 | 3.89° C | 90% | 986.6 hPa | 0 mm | - | - | - |
| 1777628776 | 3.89° C | 95% | 987.1 hPa | 0 mm | - | - | - |
| 1777627893 | 3.89° C | 91% | 986.9 hPa | 0 mm | - | - | - |
| 1777626975 | 2.78° C | 91% | 986.8 hPa | 0 mm | - | - | - |
| 1777626103 | 2.78° C | 91% | 986.8 hPa | 0 mm | - | - | - |
| 1777625176 | 2.78° C | 88% | 986.6 hPa | 0 mm | - | - | - |
| 1777624291 | 3.33° C | 88% | 986.2 hPa | 0 mm | - | - | - |
| 1777623375 | 3.89° C | 88% | 986.2 hPa | 0 mm | - | - | - |
| 1777622505 | 3.89° C | 88% | 986.2 hPa | 0 mm | - | - | - |
| 1777621575 | 3.89° C | 86% | 986.6 hPa | 0 mm | - | - | - |
| 1777620695 | 3.33° C | 86% | 986.6 hPa | 0 mm | - | - | - |
| 1777619775 | 3.89° C | 86% | 986.6 hPa | 0 mm | - | - | - |
| 1777618905 | 3.89° C | 86% | 986.6 hPa | 0 mm | - | - | - |
| 1777618283 | 4.44° C | 84% | 987.2 hPa | 0 mm | - | - | - |
| 1777617095 | 3.89° C | 87% | 986.2 hPa | 0 mm | - | - | - |
| 1777616176 | 4.44° C | 87% | 986.2 hPa | 0 mm | - | - | - |
| 1777615319 | 4.44° C | 87% | 986.2 hPa | 0 mm | - | - | - |
| 1777614376 | 4.44° C | 83% | 987.7 hPa | 0 mm | - | - | - |
* Rain latest hour (hover to see other rain measurements)
** Current wind speed in m/s (hover to see current wind gust speed)